Lake Lanier Weather Center

Moon Phase Calendar



Lake Lanier Water Level
Online Cameras

 


      

Current Conditions in Gainesville
7/1/2022 1:40:39 PM

83°F
Feels Like 87
Clouds
Humidity
65%
Pressure
30.09"
Wind
4.6 mph (E)
Dew Point
70°F
UV Index
11/10 (Extreme)
Visibility
6 mi

Hourly Forecast

Date & Time Fri, Jul 1
1:00 PM
Fri, Jul 1
2:00 PM
Fri, Jul 1
3:00 PM
Fri, Jul 1
4:00 PM
Fri, Jul 1
5:00 PM
Fri, Jul 1
6:00 PM
Fri, Jul 1
7:00 PM
Fri, Jul 1
8:00 PM
Fri, Jul 1
9:00 PM
Fri, Jul 1
10:00 PM
Fri, Jul 1
11:00 PM
Sat, Jul 2
12:00 AM
Sat, Jul 2
1:00 AM
Sat, Jul 2
2:00 AM
Sat, Jul 2
3:00 AM
Sat, Jul 2
4:00 AM
Sat, Jul 2
5:00 AM
Sat, Jul 2
6:00 AM
Sat, Jul 2
7:00 AM
Sat, Jul 2
8:00 AM
Sat, Jul 2
9:00 AM
Sat, Jul 2
10:00 AM
Sat, Jul 2
11:00 AM
Sat, Jul 2
12:00 PM
Sat, Jul 2
1:00 PM
Sat, Jul 2
2:00 PM
Sat, Jul 2
3:00 PM
Sat, Jul 2
4:00 PM
Sat, Jul 2
5:00 PM
Sat, Jul 2
6:00 PM
Sat, Jul 2
7:00 PM
Sat, Jul 2
8:00 PM
Sat, Jul 2
9:00 PM
Sat, Jul 2
10:00 PM
Sat, Jul 2
11:00 PM
Sun, Jul 3
12:00 AM
Sun, Jul 3
1:00 AM
Sun, Jul 3
2:00 AM
Sun, Jul 3
3:00 AM
Sun, Jul 3
4:00 AM
Sun, Jul 3
5:00 AM
Sun, Jul 3
6:00 AM
Sun, Jul 3
7:00 AM
Sun, Jul 3
8:00 AM
Sun, Jul 3
9:00 AM
Sun, Jul 3
10:00 AM
Sun, Jul 3
11:00 AM
Sun, Jul 3
12:00 PM
Condition
Rain

Clouds

Clouds

Clouds

Rain

Rain

Rain

Rain

Rain

Rain

Rain

Rain

Rain

Rain

Rain

Rain

Rain

Clouds

Clouds

Clouds

Clear

Clear

Clear

Clear

Rain

Clouds

Clouds

Clouds

Clouds

Clouds

Rain

Rain

Rain

Rain

Rain

Clouds

Clouds

Clouds

Clear

Clear

Clear

Clear

Clear

Clear

Clear

Clear

Clear

Clear
Temperature 83°F83°F83°F83°F83°F83°F81°F77°F74°F72°F71°F70°F69°F68°F68°F68°F68°F67°F68°F71°F75°F80°F84°F88°F90°F91°F87°F86°F89°F88°F85°F79°F75°F73°F73°F72°F72°F71°F71°F70°F70°F70°F70°F73°F78°F83°F86°F89°F
Feels Like 86°F87°F87°F87°F87°F87°F84°F78°F75°F73°F72°F71°F70°F69°F69°F69°F69°F68°F69°F72°F76°F80°F88°F91°F93°F93°F91°F89°F90°F90°F88°F79°F76°F75°F74°F73°F73°F72°F72°F71°F71°F70°F71°F75°F79°F86°F90°F93°F
Cloudiness 75%75%72%71%70%74%74%77%100%99%84%75%68%67%77%81%75%66%55%48%9%8%7%7%7%13%98%97%83%82%82%84%87%64%61%58%51%44%4%2%3%3%3%2%1%2%2%3%
Visibility 6 mi6 mi6 mi6 mi6 mi6 mi6 mi6 mi6 mi6 mi6 mi6 mi4 mi6 mi6 mi6 mi6 mi6 mi6 mi6 mi6 mi6 mi6 mi6 mi6 mi6 mi6 mi6 mi6 mi6 mi6 mi6 mi6 mi6 mi6 mi6 mi6 mi6 mi6 mi6 mi6 mi6 mi6 mi6 mi6 mi6 mi6 mi6 mi
Precipitation 100%80%71%68%64%66%66%66%70%78%74%80%99%99%40%40%36%33%29%32%0%16%36%41%46%46%57%41%33%38%37%41%45%62%58%53%52%49%5%4%0%0%0%0%12%31%38%39%
Humidity 66%65%64%67%63%63%68%76%81%85%89%92%96%97%97%97%97%97%96%93%85%72%59%51%46%43%51%52%46%47%58%73%81%86%87%89%89%89%89%91%91%91%90%85%74%62%54%48%
Dew Point 70°F70°F70°F71°F69°F69°F69°F69°F67°F67°F67°F67°F67°F67°F67°F67°F66°F66°F66°F68°F70°F70°F68°F67°F66°F65°F67°F66°F65°F65°F68°F69°F69°F69°F69°F68°F68°F67°F67°F67°F67°F66°F67°F68°F69°F68°F68°F67°F
Pressure 30.09"30.09"30.09"30.09"30.06"30.03"30.03"30.03"30.03"30.03"30.06"30.06"30.06"30.06"30.06"30.03"30.03"30.03"30.03"30.06"30.06"30.06"30.06"30.03"30"30"30"29.97"29.97"29.97"29.97"29.97"30"30"30.03"30.03"30.03"30.03"30.03"30.03"30.03"30.03"30.06"30.06"30.09"30.09"30.06"30.06"
Wind Speed 4.7 mph5.3 mph5.4 mph4.3 mph3.7 mph2.8 mph1.5 mph0.5 mph0.4 mph1.2 mph2.6 mph3.3 mph2.7 mph2 mph1 mph2.3 mph2.4 mph2.5 mph1.7 mph1 mph1 mph2.2 mph3.6 mph4 mph4.6 mph6.2 mph7 mph5.1 mph3.2 mph2.6 mph3.3 mph3.2 mph2.9 mph2.3 mph3.6 mph3.9 mph3.9 mph3.1 mph2.7 mph3.5 mph3.1 mph2.6 mph2.8 mph2.5 mph3.3 mph4.2 mph4.5 mph5.1 mph
Wind
Direction
119°
ESE
138°
SE
145°
SE
155°
SSE
167°
SSE
170°
S
165°
SSE
79°
E
94°
E
63°
ENE
29°
NNE
35°
NE
36°
NE
63°
ENE
34°
NE
26°
NNE
29°
NNE
30°
NNE

N
350°
N
303°
WNW
254°
WSW
240°
WSW
244°
WSW
256°
WSW
270°
W
294°
WNW
305°
NW
282°
WNW
237°
WSW
203°
SSW
202°
SSW
223°
SW
252°
WSW
277°
W
286°
WNW
309°
NW
326°
NW
287°
WNW
280°
W
295°
WNW
319°
NW
298°
WNW
292°
WNW
273°
W
258°
WSW
256°
WSW
254°
WSW

Daily Forecast

Date High Low Precip. Humidity
Today
Jul 1

Rain
83 °F
68 °F
100%
66%
Saturday
Jul 2

Rain
91 °F
67 °F
99%
46%
Sunday
Jul 3

Rain
92 °F
70 °F
57%
42%
Monday
Jul 4

Rain
93 °F
70 °F
54%
48%
Tuesday
Jul 5

Rain
94 °F
71 °F
54%
40%
Wednesday
Jul 6

Clouds
98 °F
74 °F
23%
38%
Thursday
Jul 7

Rain
98 °F
72 °F
73%
37%
Friday
Jul 8

Rain
99 °F
71 °F
67%
34%
Saturday
Jul 9

Rain
99 °F
71 °F
77%
35%
Sunday
Jul 10

Rain
99 °F
69 °F
55%
35%
Monday
Jul 11

Rain
100 °F
71 °F
97%
36%
Tuesday
Jul 12

Rain
95 °F
71 °F
97%
43%
Wednesday
Jul 13

Rain
94 °F
76 °F
46%
43%
Thursday
Jul 14

Rain
94 °F
74 °F
45%
44%
Friday
Jul 15

Rain
94 °F
70 °F
99%
42%
Saturday
Jul 16

Rain
94 °F
69 °F
100%
39%

Temperature 8-14 Day Outlook



Precipitation 8-14 Day Outlook






About Us
Contact Us
Site Map
Search Site
Advertise With Us
   
www.DiscoverLanier.com
THE LAKE LANIER WEBSITE

Copyright 2022, Lakes Online
Privacy    |    Legal